sat.trackr.live / text

‹ back to catalog

STARLINK-5094

NORAD 53977 · 2022-125P

PAYLOAD ACTIVE UNKNOWN

§ Identity

Operator
Country
US
Launch date
2022-10-05
Launch site
AFWTR
Launch vehicle
Mass (kg)
RCS (m²)

Purposes: comms

External: N2YO · Heavens-Above · Gunter

§ Orbital elements

Epoch: 2026-05-24T22:50:10.071744Z

Period
95.44 min
Inclination
53.2123°
Eccentricity
0.0001623
Mean motion
15.08826276 rev/d
Perigee alt
538.7 km
Apogee alt
540.9 km
Semi-major
6,917.9 km
B*
1.4924e-4
RAAN
236.8793°
Arg perigee
88.4022°
Mean anomaly
271.7156°
Rev number
20,090

§ Raw data

STARLINK-50941 53977U 22125P   26144.95150546  .00002087  00000+0  14924-3 0  99942 53977  53.2123 236.8793 0001623  88.4022 271.7156 15.08826276200908

JSON: /api/v1/satellites/53977 · /tle

For live sub-satellite position, see the globe view (requires WebGL).

§ Visibility from observer

Set your observer location to see the next 7 days of passes ≥ 10°. The values pass through the URL so the page stays shareable.

No JS? Fill the form by hand. The geolocation button needs JavaScript.